Time,TemperatureF,DewpointF,PressureIn,WindDirection,WindDirectionDegrees,WindSpeedMPH,WindSpeedGustMPH,Humidity,HourlyPrecipIn,Conditions,Clouds,dailyrainin,SoftwareType,DateUTC
2013-01-28 00:10:00,32.8,24.0,30.71,WSW,242,0.0,4.0,69,0.00,,,0.00,weatherlink.com 1.10,2013-01-28 05:10:00,
2013-01-28 00:25:00,32.8,24.0,30.70,WSW,248,2.0,5.0,69,0.00,,,0.00,weatherlink.com 1.10,2013-01-28 05:25:00,
2013-01-28 00:40:00,33.0,24.0,30.70,West,271,0.0,6.0,69,0.00,,,0.00,weatherlink.com 1.10,2013-01-28 05:40:00,
2013-01-28 00:55:00,32.9,24.0,30.69,West,276,2.0,5.0,70,0.00,,,0.00,weatherlink.com 1.10,2013-01-28 05:55:00,
2013-01-28 01:10:00,32.6,24.0,30.69,West,269,0.0,4.0,70,0.00,,,0.00,weatherlink.com 1.10,2013-01-28 06:10:00,
2013-01-28 01:25:00,32.9,24.0,30.68,WSW,242,0.0,2.0,70,0.00,,,0.00,weatherlink.com 1.10,2013-01-28 06:25:00,
2013-01-28 01:40:00,33.3,24.0,30.68,SW,228,2.0,7.0,69,0.00,,,0.00,weatherlink.com 1.10,2013-01-28 06:40:00,
2013-01-28 01:55:00,33.7,25.0,30.68,SW,227,2.0,9.0,69,0.00,,,0.00,weatherlink.com 1.10,2013-01-28 06:55:00,
2013-01-28 02:10:00,33.8,24.0,30.68,WSW,237,4.0,6.0,68,0.00,,,0.00,weatherlink.com 1.10,2013-01-28 07:10:00,
2013-01-28 02:25:00,33.8,25.0,30.68,SW,226,1.0,9.0,70,0.00,,,0.00,weatherlink.com 1.10,2013-01-28 07:25:00,
2013-01-28 02:40:00,33.8,25.0,30.68,SW,232,3.0,9.0,70,0.00,,,0.00,weatherlink.com 1.10,2013-01-28 07:40:00,
2013-01-28 02:56:00,33.8,25.0,30.67,SW,227,6.0,10.0,71,0.00,,,0.00,weatherlink.com 1.10,2013-01-28 07:56:00,
2013-01-28 03:11:00,33.7,26.0,30.66,SW,232,8.0,11.0,73,0.00,,,0.00,weatherlink.com 1.10,2013-01-28 08:11:00,
2013-01-28 03:26:00,33.3,27.0,30.65,SW,223,8.0,10.0,78,0.00,,,0.00,weatherlink.com 1.10,2013-01-28 08:26:00,
2013-01-28 03:41:00,33.0,27.0,30.64,SW,231,6.0,8.0,80,0.00,,,0.00,weatherlink.com 1.10,2013-01-28 08:41:00,
2013-01-28 03:56:00,33.0,27.0,30.64,WSW,239,6.0,12.0,80,0.00,,,0.00,weatherlink.com 1.10,2013-01-28 08:56:00,
2013-01-28 04:11:00,32.9,28.0,30.64,WSW,243,8.0,10.0,83,0.00,,,0.00,weatherlink.com 1.10,2013-01-28 09:11:00,
2013-01-28 04:26:00,32.8,29.0,30.64,SSW,205,5.0,11.0,84,0.00,,,0.00,weatherlink.com 1.10,2013-01-28 09:26:00,
2013-01-28 04:41:00,32.6,29.0,30.62,SW,229,8.0,8.0,85,0.01,,,0.01,weatherlink.com 1.10,2013-01-28 09:41:00,
2013-01-28 04:56:00,32.8,29.0,30.63,WSW,244,2.0,12.0,86,0.01,,,0.01,weatherlink.com 1.10,2013-01-28 09:56:00,
2013-01-28 05:11:00,32.7,29.0,30.63,SW,222,8.0,9.0,87,0.03,,,0.03,weatherlink.com 1.10,2013-01-28 10:11:00,
2013-01-28 05:26:00,32.7,29.0,30.62,SW,231,11.0,15.0,87,0.03,,,0.03,weatherlink.com 1.10,2013-01-28 10:26:00,
2013-01-28 05:41:00,32.6,30.0,30.62,SW,225,6.0,13.0,88,0.04,,,0.05,weatherlink.com 1.10,2013-01-28 10:41:00,
2013-01-28 05:56:00,32.6,30.0,30.62,SW,219,6.0,15.0,89,0.04,,,0.05,weatherlink.com 1.10,2013-01-28 10:56:00,
2013-01-28 06:11:00,32.8,30.0,30.62,SSW,209,8.0,15.0,88,0.03,,,0.06,weatherlink.com 1.10,2013-01-28 11:11:00,
2013-01-28 06:26:00,32.8,30.0,30.61,SW,232,7.0,14.0,89,0.02,,,0.06,weatherlink.com 1.10,2013-01-28 11:26:00,
2013-01-28 06:41:00,33.0,30.0,30.60,SW,218,8.0,13.0,89,0.02,,,0.07,weatherlink.com 1.10,2013-01-28 11:41:00,
2013-01-28 06:56:00,33.1,30.0,30.60,SW,230,9.0,13.0,88,0.02,,,0.07,weatherlink.com 1.10,2013-01-28 11:56:00,
2013-01-28 07:11:00,33.3,30.0,30.60,SSW,212,10.0,13.0,89,0.02,,,0.08,weatherlink.com 1.10,2013-01-28 12:11:00,
2013-01-28 07:26:00,33.4,30.0,30.60,SW,219,8.0,13.0,88,0.02,,,0.08,weatherlink.com 1.10,2013-01-28 12:26:00,
2013-01-28 07:41:00,33.6,30.0,30.60,SW,229,13.0,14.0,88,0.01,,,0.08,weatherlink.com 1.10,2013-01-28 12:41:00,
2013-01-28 07:56:00,33.7,31.0,30.60,SW,224,9.0,13.0,88,0.01,,,0.08,weatherlink.com 1.10,2013-01-28 12:56:00,
2013-01-28 08:11:00,33.9,31.0,30.60,SW,219,8.0,13.0,88,0.01,,,0.09,weatherlink.com 1.10,2013-01-28 13:11:00,
2013-01-28 08:26:00,34.1,31.0,30.60,SW,220,7.0,14.0,88,0.01,,,0.09,weatherlink.com 1.10,2013-01-28 13:26:00,
2013-01-28 08:41:00,34.3,31.0,30.59,SW,223,10.0,15.0,88,0.01,,,0.09,weatherlink.com 1.10,2013-01-28 13:41:00,
2013-01-28 08:56:00,34.4,31.0,30.59,SW,223,7.0,16.0,88,0.01,,,0.09,weatherlink.com 1.10,2013-01-28 13:56:00,
2013-01-28 09:11:00,34.5,31.0,30.58,SW,229,9.0,12.0,88,0.00,,,0.09,weatherlink.com 1.10,2013-01-28 14:11:00,
2013-01-28 09:26:00,34.7,32.0,30.57,SSW,208,10.0,14.0,88,0.00,,,0.09,weatherlink.com 1.10,2013-01-28 14:26:00,
2013-01-28 09:41:00,35.1,32.0,30.57,SW,234,5.0,14.0,88,0.00,,,0.09,weatherlink.com 1.10,2013-01-28 14:41:00,
2013-01-28 09:56:00,35.6,32.0,30.57,SW,220,10.0,15.0,88,0.00,,,0.09,weatherlink.com 1.10,2013-01-28 14:56:00,
2013-01-28 10:11:00,36.6,33.0,30.55,WSW,239,9.0,16.0,88,0.00,,,0.09,weatherlink.com 1.10,2013-01-28 15:11:00,
2013-01-28 10:27:00,37.7,35.0,30.56,SW,232,12.0,18.0,88,0.00,,,0.09,weatherlink.com 1.10,2013-01-28 15:27:00,
2013-01-28 10:42:00,38.1,35.0,30.55,SW,219,12.0,19.0,87,0.00,,,0.09,weatherlink.com 1.10,2013-01-28 15:42:00,
2013-01-28 10:57:00,38.4,35.0,30.54,SW,220,16.0,20.0,86,0.00,,,0.09,weatherlink.com 1.10,2013-01-28 15:57:00,
2013-01-28 11:12:00,38.6,35.0,30.54,West,263,8.0,16.0,87,0.00,,,0.09,weatherlink.com 1.10,2013-01-28 16:12:00,
2013-01-28 11:27:00,39.0,36.0,30.53,SW,221,9.0,18.0,87,0.00,,,0.09,weatherlink.com 1.10,2013-01-28 16:27:00,
2013-01-28 11:42:00,39.7,36.0,30.52,SW,232,9.0,21.0,86,0.00,,,0.09,weatherlink.com 1.10,2013-01-28 16:42:00,
2013-01-28 11:57:00,40.1,36.0,30.52,SW,229,9.0,15.0,86,0.00,,,0.09,weatherlink.com 1.10,2013-01-28 16:57:00,
2013-01-28 12:12:00,40.0,36.0,30.50,SW,227,10.0,12.0,86,0.00,,,0.09,weatherlink.com 1.10,2013-01-28 17:12:00,
2013-01-28 12:27:00,40.4,36.0,30.48,SW,234,10.0,16.0,85,0.00,,,0.09,weatherlink.com 1.10,2013-01-28 17:27:00,
2013-01-28 12:42:00,41.6,37.0,30.47,SW,216,16.0,16.0,84,0.00,,,0.09,weatherlink.com 1.10,2013-01-28 17:42:00,
2013-01-28 12:57:00,42.6,38.0,30.47,West,265,6.0,14.0,83,0.00,,,0.09,weatherlink.com 1.10,2013-01-28 17:57:00,
2013-01-28 13:12:00,43.7,38.0,30.44,WSW,238,11.0,14.0,81,0.00,,,0.09,weatherlink.com 1.10,2013-01-28 18:12:00,
2013-01-28 13:27:00,44.9,39.0,30.43,SW,236,5.0,13.0,80,0.00,,,0.09,weatherlink.com 1.10,2013-01-28 18:27:00,
2013-01-28 13:42:00,46.7,40.0,30.42,SSW,198,9.0,13.0,78,0.00,,,0.09,weatherlink.com 1.10,2013-01-28 18:42:00,
2013-01-28 13:57:00,47.7,41.0,30.41,SW,219,6.0,12.0,78,0.00,,,0.09,weatherlink.com 1.10,2013-01-28 18:57:00,
2013-01-28 14:12:00,49.2,42.0,30.40,SW,229,7.0,11.0,75,0.00,,,0.09,weatherlink.com 1.10,2013-01-28 19:12:00,
2013-01-28 14:27:00,50.2,41.0,30.39,SSW,201,12.0,16.0,72,0.00,,,0.09,weatherlink.com 1.10,2013-01-28 19:27:00,
2013-01-28 14:42:00,49.8,41.0,30.39,SSW,207,13.0,16.0,73,0.00,,,0.09,weatherlink.com 1.10,2013-01-28 19:42:00,
2013-01-28 14:57:00,50.9,43.0,30.38,SW,219,6.0,14.0,73,0.00,,,0.09,weatherlink.com 1.10,2013-01-28 19:57:00,
2013-01-28 15:13:00,52.4,43.0,30.37,SW,219,13.0,16.0,70,0.00,,,0.09,weatherlink.com 1.10,2013-01-28 20:13:00,
2013-01-28 15:28:00,53.6,43.0,30.38,SW,229,10.0,13.0,68,0.00,,,0.09,weatherlink.com 1.10,2013-01-28 20:28:00,
2013-01-28 15:43:00,54.0,44.0,30.38,SW,231,10.0,11.0,69,0.00,,,0.09,weatherlink.com 1.10,2013-01-28 20:43:00,
2013-01-28 15:58:00,55.2,44.0,30.38,SW,227,7.0,10.0,66,0.00,,,0.09,weatherlink.com 1.10,2013-01-28 20:58:00,
2013-01-28 16:13:00,54.5,44.0,30.37,SSW,201,8.0,12.0,67,0.00,,,0.09,weatherlink.com 1.10,2013-01-28 21:13:00,
2013-01-28 16:28:00,54.0,44.0,30.36,SW,215,7.0,10.0,69,0.00,,,0.09,weatherlink.com 1.10,2013-01-28 21:28:00,
2013-01-28 16:43:00,54.0,44.0,30.36,SSW,198,5.0,12.0,69,0.00,,,0.09,weatherlink.com 1.10,2013-01-28 21:43:00,
2013-01-28 16:58:00,53.9,44.0,30.36,SW,215,9.0,13.0,70,0.00,,,0.09,weatherlink.com 1.10,2013-01-28 21:58:00,
2013-01-28 17:13:00,53.3,44.0,30.36,SSW,205,9.0,16.0,70,0.00,,,0.09,weatherlink.com 1.10,2013-01-28 22:13:00,
2013-01-28 17:43:00,53.1,44.0,30.36,West,278,5.0,13.0,70,0.00,,,0.09,weatherlink.com 1.10,2013-01-28 22:43:00,
2013-01-28 17:58:00,52.6,43.0,30.36,SSW,198,4.0,8.0,70,0.00,,,0.09,weatherlink.com 1.10,2013-01-28 22:58:00,
2013-01-28 18:13:00,52.5,43.0,30.38,NW,308,1.0,9.0,70,0.00,,,0.09,weatherlink.com 1.10,2013-01-28 23:13:00,
2013-01-28 18:28:00,52.1,43.0,30.38,West,261,0.0,5.0,72,0.00,,,0.09,weatherlink.com 1.10,2013-01-28 23:28:00,
2013-01-28 18:43:00,51.6,42.0,30.37,WSW,241,8.0,13.0,71,0.00,,,0.09,weatherlink.com 1.10,2013-01-28 23:43:00,
2013-01-28 18:58:00,51.0,42.0,30.36,WSW,245,9.0,19.0,72,0.00,,,0.09,weatherlink.com 1.10,2013-01-28 23:58:00,
2013-01-28 19:13:00,51.0,42.0,30.37,WSW,245,5.0,9.0,72,0.00,,,0.09,weatherlink.com 1.10,2013-01-29 00:13:00,
2013-01-28 19:28:00,49.8,42.0,30.37,WNW,287,6.0,12.0,74,0.00,,,0.09,weatherlink.com 1.10,2013-01-29 00:28:00,
2013-01-28 19:43:00,49.9,42.0,30.36,SW,226,14.0,15.0,73,0.00,,,0.09,weatherlink.com 1.10,2013-01-29 00:43:00,
2013-01-28 19:58:00,49.9,42.0,30.35,West,271,7.0,22.0,73,0.00,,,0.09,weatherlink.com 1.10,2013-01-29 00:58:00,
2013-01-28 20:13:00,49.0,41.0,30.36,West,270,1.0,11.0,74,0.00,,,0.09,weatherlink.com 1.10,2013-01-29 01:13:00,
2013-01-28 20:28:00,47.7,41.0,30.36,West,278,5.0,12.0,78,0.00,,,0.09,weatherlink.com 1.10,2013-01-29 01:28:00,
2013-01-28 20:43:00,48.2,41.0,30.36,West,268,3.0,10.0,77,0.00,,,0.09,weatherlink.com 1.10,2013-01-29 01:43:00,
2013-01-28 20:58:00,47.8,41.0,30.35,NNE,26,0.0,2.0,78,0.00,,,0.09,weatherlink.com 1.10,2013-01-29 01:58:00,
2013-01-28 21:13:00,46.7,41.0,30.36,NNE,26,0.0,2.0,80,0.00,,,0.09,weatherlink.com 1.10,2013-01-29 02:13:00,
2013-01-28 21:28:00,46.6,41.0,30.36,WSW,256,0.0,4.0,80,0.00,,,0.09,weatherlink.com 1.10,2013-01-29 02:28:00,
2013-01-28 21:58:00,46.6,41.0,30.36,West,270,0.0,5.0,80,0.00,,,0.09,weatherlink.com 1.10,2013-01-29 02:58:00,
2013-01-28 22:13:00,46.2,41.0,30.35,WSW,239,0.0,2.0,81,0.00,,,0.09,weatherlink.com 1.10,2013-01-29 03:13:00,
2013-01-28 22:28:00,46.2,41.0,30.35,WSW,239,0.0,0.0,82,0.00,,,0.09,weatherlink.com 1.10,2013-01-29 03:28:00,
2013-01-28 22:58:00,46.4,41.0,30.36,SW,232,0.0,4.0,80,0.00,,,0.09,weatherlink.com 1.10,2013-01-29 03:58:00,
2013-01-28 23:13:00,46.1,42.0,30.36,SW,225,3.0,7.0,84,0.00,,,0.09,weatherlink.com 1.10,2013-01-29 04:13:00,
2013-01-28 23:28:00,49.1,44.0,30.34,North,11,1.0,10.0,82,0.00,,,0.09,weatherlink.com 1.10,2013-01-29 04:28:00,
2013-01-28 23:43:00,47.2,42.0,30.35,NNE,22,2.0,6.0,82,0.00,,,0.09,weatherlink.com 1.10,2013-01-29 04:43:00,
2013-01-28 23:58:00,47.7,43.0,30.35,NNW,348,4.0,6.0,82,0.00,,,0.09,weatherlink.com 1.10,2013-01-29 04:58:00,